Location: Blackie
(50.6050°N, 113.6230°W)
Time: 01:29:43
(UTC+00:00)

N. Korean satellite - Pass Details

Date: 09 December 2021
Orbit: 446 x 492 km, 97.3° (Epoch: 16 January)

Event Time Altitude Azimuth Distance (km) Brightness Sun altitude
Rises 13:17:52 0° 9° (N) 2,466 10.1 -18.9°
Reaches altitude 10° 13:19:56 10° 5° (N) 1,586 9.1 -18.6°
Maximum altitude 13:23:15 54° 287° (WNW) 553 6.4 -18.0°
Drops below altitude 10° 13:26:33 10° 210° (SSW) 1,575 9.0 -17.5°
Sets 13:28:36 0° 205° (SSW) 2,445 10.0 -17.2°
